Погода в Йыхви

Эстония     59°21′27″N   27°25′14″E
темп.,
°C
ветер,
м/с
пор.,
м/с
влажн.,
%
обл.,
%
осадки,
мм/ч
давл.,
гПа
погр.,
м
13 июня, вс
вс1300:00+14з2394100 0.6 100056
03:00+13зюз1196100 0.6 100011
06:00+14ююз1398100 0.2 1001115
09:00+14сз2598100 0.8 1002346
12:00+13зсз1497100 1.8 1004303
15:00+13сз4997100 2.2 1006576
18:00+13ссз51090100 0.1 1009707
21:00+13ссз3984100 0.1 1011502
14 июня, пн
пн1400:00+10зсз249616 0.0 101383
03:00+10сз398511 0.0 1014255
06:00+11сз378151 0.0 1016227
09:00+15ссз355542 0.0 1017560
12:00+18ссз234295 0.0 10181358
15:00+20сз133599 0.0 10171694
18:00+20ю343925 0.0 10151103
21:00+15ю3865100 0.0 1014208
15 июня, вт
вт1500:00+12ююз397625 0.0 1013166
03:00+13ююз4156697 0.0 1011474
06:00+13ююз51468100 0.0 1009584
09:00+16юз51069100 0.0 1009773
12:00+17юз4872100 0.1 10091289
15:00+20з4742100 0.1 10092027
18:00+17ссз4658100 0.0 1010514
21:00+14зсз2562100 0.0 1011218
16 июня, ср
ср1600:00+9з39762 0.0 1013213
03:00+8зсз39890 0.0 1015182
06:00+10зсз25843 0.0 1017143
09:00+17з23495 0.0 1018752
12:00+20зюз463895 0.0 10181794
15:00+22з253643 0.0 10182195
18:00+19с344939 0.0 1019542
21:00+15сз256799 0.0 1020127
17 июня, чт
чт1700:00+11зюз11755 0.0 102114
03:00+10ююз22875 0.0 102340
06:00+12юз25786 0.0 1023125
09:00+18ююз354616 0.0 1024496
12:00+22юз4546100 0.0 10241256
15:00+24ююз344295 0.0 10241563
18:00+24ююз35440 0.0 10231258
21:00+18зсз11730 0.0 102419